[[{"header":{"parameterUnit":"m.s-1","parameterCategory":1,"la1":30.2991,"la2":30.254,"lo1":-89.0895,"lo2":-89.0444,"dy":0.0017,"dx":0.0017,"nx":28,"ny":28,"refTime":"2024-04-08T09:00:00:Z","depth":0,"parameterNumber":2,"parameterNumberName":"U-component_of_WINDS"},"data":[0,0,0,0,0,0,0,0,0,0,0,0,0,0,0,0,0,0,0,0,0,0,0,0,0,0,0,0,0,0,0,0,0,0,0,0,0,0,0,0,0,0,0,0,0,0,0,0,0,0,0,0,0,0,0,0,0,0,-2.4717,-2.4718,0,-2.482,-2.4821,-2.4822,-2.4836,-2.4835,-2.4834,-2.4833,-2.494,-2.4944,-2.4948,0,0,0,0,0,0,0,0,0,0,0,0,0,-2.4534,-2.4538,-2.4717,-2.4718,-2.4719,-2.4819,-2.4821,-2.4822,-2.4836,-2.4835,-2.4834,-2.4832,-2.4939,-2.4944,-2.4948,0,0,0,0,0,0,0,0,0,0,0,0,0,-2.4623,-2.4539,-2.4716,-2.4738,-2.4741,-2.4819,-2.4821,-2.4823,-2.4836,-2.4835,-2.4833,-2.4832,-2.4938,-2.4943,-2.4949,-2.5013,0,0,-2.4966,-2.4968,0,0,0,0,0,0,0,0,-2.4618,-2.463,-2.4734,-2.4737,-2.474,-2.4813,-2.4796,-2.4886,-2.4837,-2.48,-2.4833,-2.4831,-2.4899,-2.4908,-2.4931,-2.5018,-2.5023,-2.4966,-2.497,-2.4972,-2.4974,0,0,0,0,0,0,0,-2.4612,-2.4625,-2.4757,-2.4735,-2.4739,-2.4743,-2.4754,-2.4813,-2.4857,-2.4803,-2.4804,-2.4816,-2.4901,-2.4925,-2.4933,-2.5024,-2.4966,-2.4971,-2.4975,-2.4977,-2.5169,-2.5171,0,0,0,0,0,0,-2.4601,-2.462,-2.4754,-2.476,-2.4674,-2.4748,-2.476,-2.4791,-2.4856,-2.4865,-2.4817,-2.4817,-2.4916,-2.4927,-2.4937,-2.5016,-2.4972,-2.4978,-2.4981,-2.5168,-2.517,-2.5172,0,0,0,0,0,0,-2.4597,-2.4613,-2.475,-2.4691,-2.4708,-2.4753,-2.4787,-2.4794,-2.4818,-2.4867,-2.4875,-2.4834,-2.4916,-2.4929,-2.4994,-2.502,-2.498,-2.4985,-2.5166,-2.5168,-2.5171,-2.5175,0,0,0,0,0,0,-2.4592,-2.4612,-2.4636,-2.4691,-2.4712,-2.4804,-2.4789,-2.4797,-2.4828,-2.4828,-2.4885,-2.4893,-2.4915,-2.4985,-2.4999,-2.5027,-2.499,-2.5163,-2.5167,-2.517,-2.5173,-2.5178,-2.5182,0,0,0,0,0,-2.4586,-2.4634,-2.4637,-2.4653,-2.4743,-2.4806,-2.4817,-2.4842,-2.483,-2.4855,-2.4886,-2.4891,-2.5015,-2.4992,-2.5008,-2.5038,-2.5162,-2.5166,-2.517,-2.5171,-2.5177,-2.5182,0,0,0,0,0,0,-2.4581,-2.4641,-2.4646,-2.4713,-2.4754,-2.4808,-2.484,-2.4847,-2.4893,-2.4891,-2.4921,-2.4933,-2.4997,-2.5024,-2.4997,-2.5104,-2.5088,-2.5095,-2.5083,-2.5089,-2.5093,-2.5085,-2.4994,0,0,0,0,0,-2.4588,-2.4633,-2.4684,-2.4738,-2.4759,-2.4796,-2.4824,-2.484,-2.4884,-2.4901,-2.4937,-2.498,-2.5029,-2.5061,-2.5108,-2.5177,-2.519,-2.5206,-2.521,-2.5214,-2.522,-2.5258,-2.5266,-2.5184,-2.5184,-2.5184,0,0,-2.4603,-2.4641,-2.4668,-2.4738,-2.4772,-2.4819,-2.481,-2.4861,-2.4896,-2.4909,-2.4972,-2.5,-2.505,-2.5117,-2.5149,-2.5142,-2.5245,-2.5219,-2.5221,-2.5225,-2.5263,-2.527,-2.5277,-2.5187,-2.5186,-2.5186,0,0,-2.4653,-2.4687,-2.4736,-2.477,-2.482,-2.4845,-2.4856,-2.491,-2.4928,-2.4992,-2.5003,-2.5046,-2.5129,-2.5164,-2.5193,-2.5257,-2.5263,-2.5272,-2.5295,-2.5332,-2.5339,-2.5344,-2.5367,-2.5375,-2.5278,-2.5278,-2.5278,0,-2.4665,-2.4736,-2.476,-2.481,-2.4841,-2.4854,-2.4904,-2.4936,-2.5,-2.5021,-2.5013,-2.5118,-2.5153,-2.5228,-2.5244,-2.5267,-2.5281,-2.5266,-2.5336,-2.5342,-2.5348,-2.537,-2.5378,-2.5279,-2.5279,-2.5278,-2.5278,0,-2.4748,-2.4797,-2.483,-2.4891,-2.4925,-2.4975,-2.5008,-2.504,-2.5053,-2.5078,-2.5143,-2.5185,-2.5241,-2.5261,-2.5274,-2.5338,-2.5332,-2.5329,-2.5314,-2.5355,-2.5377,-2.5385,-2.528,-2.5279,-2.5279,-2.5279,0,0,-2.4799,-2.4872,-2.4884,-2.4911,-2.4968,-2.5007,-2.5057,-2.5112,-2.5139,-2.5183,-2.5226,-2.5297,-2.5294,-2.5327,-2.5344,-2.5377,-2.5425,-2.537,-2.5372,-2.5378,-2.5498,-2.55,-2.5509,-2.5429,-2.5431,-2.5432,-2.5494,0,-2.4856,-2.4945,-2.4969,-2.5045,-2.509,-2.5104,-2.5148,-2.5188,-2.5214,-2.5257,-2.5285,-2.5334,-2.5327,-2.5347,-2.538,-2.5412,-2.5449,-2.5408,-2.547,-2.5472,-2.5457,-2.552,-2.5522,-2.5578,-2.5502,-2.5504,-2.5505,0,-2.4934,-2.4979,-2.5059,-2.511,-2.513,-2.5169,-2.5221,-2.5261,-2.5307,-2.5324,-2.536,-2.5374,-2.5428,-2.541,-2.5485,-2.5456,-2.5483,-2.5503,-2.5505,-2.5512,-2.5491,-2.5528,-2.5597,-2.5605,-2.5518,-2.5517,-2.5516,0,-2.4963,-2.5043,-2.5101,-2.5125,-2.5185,-2.5212,-2.5239,-2.5284,-2.5315,-2.5361,-2.5381,-2.5433,-2.5461,-2.5501,-2.5529,-2.5513,-2.5601,-2.5586,-2.5617,-2.5616,-2.5634,-2.5633,-2.5708,-2.5652,-2.5652,-2.5652,-2.5652,0,-2.5024,-2.5073,-2.5115,-2.5151,-2.5206,-2.5233,-2.5287,-2.5314,-2.5354,-2.5396,-2.5411,-2.5451,-2.5485,-2.5529,-2.5552,-2.561,-2.5623,-2.5638,-2.5643,-2.5636,-2.5634,-2.5654,-2.5651,-2.5654,-2.5654,-2.5653,-2.5653,0,-2.5065,-2.5095,-2.516,-2.5212,-2.5226,-2.5264,-2.5309,-2.5345,-2.5371,-2.5424,-2.5438,-2.5479,-2.5532,-2.5563,-2.5631,-2.5646,-2.571,-2.5714,-2.5694,-2.5697,-2.5726,-2.5722,-2.5816,-2.583,-2.5765,-2.5766,-2.5766,0,-2.5102,-2.514,-2.5196,-2.5224,-2.5251,-2.5297,-2.5329,-2.5357,-2.539,-2.5445,-2.5474,-2.5527,-2.5572,-2.5655,-2.5692,-2.5743,-2.5748,-2.5777,-2.5756,-2.5748,-2.5748,-2.5746,-2.575,-2.5781,-2.5782,-2.5782,-2.5782,0,-2.5165,-2.5178,-2.5222,-2.5272,-2.5308,-2.5349,-2.539,-2.5413,-2.5448,-2.5484,-2.5537,-2.5572,-2.564,-2.5693,-2.5747,-2.5776,-2.5785,-2.5789,-2.5799,-2.5792,-2.5779,-2.5786,-2.5704,-2.5786,-2.5786,-2.5786,-2.5786,-2.5785,-2.5205,-2.5239,-2.5283,-2.5332,-2.5365,-2.5403,-2.5439,-2.5469,-2.5513,-2.557,-2.5585,-2.5641,-2.5686,-2.576,-2.579,-2.5835,-2.583,-2.5845,-2.5848,-2.5851,-2.5852,-2.5772,-2.5845,-2.5845,-2.5845,-2.5845,-2.5845,0,-2.5268,-2.5297,-2.5342,-2.5397,-2.5436,-2.544,-2.5486,-2.5518,-2.5567,-2.5608,-2.5651,-2.5712,-2.5764,-2.5804,-2.5857,-2.5885,-2.5891,-2.5898,-2.5896,-2.5903,-2.5853,-2.5839,-2.5893,-2.5893,-2.5893,-2.5893,-2.5893,-2.5893,-2.5305,-2.5363,-2.5381,-2.5455,-2.5484,-2.5538,-2.5564,-2.5599,-2.5631,-2.5699,-2.5742,-2.5767,-2.5808,-2.5864,-2.5912,-2.5922,-2.5941,-2.5947,-2.5959,-2.5911,-2.5906,-2.5901,-2.5888,-2.5951,-2.5951,-2.6005,-2.6005,-2.6005]},{"header":{"parameterUnit":"m.s-1","parameterCategory":1,"la1":30.2991,"la2":30.254,"lo1":-89.0895,"lo2":-89.0444,"dy":0.0017,"dx":0.0017,"nx":28,"ny":28,"refTime":"2024-04-08T09:00:00:Z","depth":0,"parameterNumber":3,"parameterNumberName":"V-component_of_WINDS"},"data":[0,0,0,0,0,0,0,0,0,0,0,0,0,0,0,0,0,0,0,0,0,0,0,0,0,0,0,0,0,0,0,0,0,0,0,0,0,0,0,0,0,0,0,0,0,0,0,0,0,0,0,0,0,0,0,0,0,0,3.2895,3.2895,0,3.2931,3.2931,3.2932,3.2902,3.2901,3.29,3.2898,3.2934,3.2936,3.2938,0,0,0,0,0,0,0,0,0,0,0,0,0,3.2797,3.2799,3.2894,3.2895,3.2895,3.2931,3.2931,3.2932,3.2902,3.2901,3.2899,3.2898,3.2934,3.2936,3.2939,0,0,0,0,0,0,0,0,0,0,0,0,0,3.2837,3.28,3.2894,3.2885,3.2884,3.2931,3.2932,3.2932,3.2903,3.2901,3.2899,3.2897,3.2933,3.2936,3.2939,3.2996,0,0,3.2949,3.295,0,0,0,0,0,0,0,0,3.2835,3.2841,3.2886,3.2886,3.2885,3.291,3.291,3.2954,3.2903,3.2896,3.2898,3.2896,3.2928,3.2931,3.2942,3.2998,3.2999,3.2949,3.2951,3.2952,3.2953,0,0,0,0,0,0,0,3.2832,3.2839,3.2909,3.2887,3.2886,3.2878,3.2882,3.2918,3.2922,3.2896,3.2894,3.2899,3.2927,3.2939,3.2943,3.3,3.2949,3.2952,3.2954,3.2955,3.3104,3.3106,0,0,0,0,0,0,3.283,3.2837,3.2908,3.291,3.2855,3.2881,3.2885,3.2904,3.2921,3.2922,3.2901,3.2897,3.2935,3.2939,3.2944,3.3011,3.2952,3.2955,3.2957,3.3102,3.3104,3.3106,0,0,0,0,0,0,3.2828,3.2837,3.2906,3.2873,3.2881,3.2885,3.2906,3.2906,3.2918,3.2925,3.2925,3.2912,3.2933,3.2939,3.2983,3.3012,3.2957,3.2959,3.3099,3.3102,3.3105,3.3148,0,0,0,0,0,0,3.2826,3.2837,3.2859,3.2874,3.2883,3.2946,3.2908,3.2908,3.2923,3.292,3.2936,3.2936,3.2932,3.2979,3.2986,3.3016,3.2962,3.3097,3.3101,3.3104,3.3144,3.3152,3.3159,0,0,0,0,0,3.2822,3.2869,3.286,3.2869,3.2911,3.2948,3.2953,3.2948,3.2926,3.2948,3.2952,3.2936,3.3008,3.2983,3.2992,3.3023,3.3095,3.3099,3.3104,3.314,3.315,3.3159,0,0,0,0,0,0,3.2857,3.2871,3.2861,3.2914,3.293,3.2943,3.297,3.2958,3.298,3.2976,3.2968,3.2972,3.3018,3.3025,3.2997,3.3078,3.3048,3.3054,3.3073,3.3082,3.3089,3.3087,3.2965,0,0,0,0,0,3.2871,3.29,3.291,3.2956,3.2965,3.2966,3.2982,3.2977,3.2992,3.2999,3.3006,3.3022,3.3048,3.3065,3.309,3.3145,3.3147,3.317,3.3177,3.3183,3.3189,3.3218,3.3228,3.3121,3.3121,3.3121,0,0,3.29,3.2911,3.293,3.2964,3.2975,3.3005,3.2972,3.3005,3.3027,3.3004,3.3046,3.3052,3.3069,3.3118,3.314,3.3125,3.3219,3.3189,3.3194,3.3196,3.3224,3.3234,3.3243,3.3125,3.3124,3.3123,0,0,3.2968,3.298,3.3019,3.3031,3.3049,3.305,3.306,3.3074,3.3077,3.3119,3.3102,3.3128,3.3173,3.3186,3.3198,3.327,3.3256,3.3278,3.3318,3.3346,3.3354,3.3362,3.3387,3.3396,3.3284,3.3284,3.3284,0,3.3002,3.3047,3.304,3.3075,3.309,3.307,3.3109,3.3122,3.3147,3.3157,3.314,3.3196,3.3206,3.3258,3.3275,3.3286,3.3296,3.3276,3.3354,3.3361,3.3368,3.3392,3.3402,3.3287,3.3286,3.3286,3.3286,0,3.3087,3.3118,3.3147,3.3173,3.3191,3.3227,3.3226,3.3245,3.3238,3.324,3.3283,3.3294,3.332,3.3332,3.3325,3.3383,3.3373,3.3355,3.3324,3.3381,3.3403,3.3412,3.329,3.3289,3.3289,3.3288,0,0,3.3178,3.3199,3.321,3.3221,3.3239,3.3263,3.3298,3.3324,3.334,3.3358,3.3387,3.3426,3.3409,3.3423,3.3417,3.3442,3.3498,3.3421,3.3421,3.3435,3.3562,3.3575,3.3586,3.3489,3.3491,3.3492,3.3561,0,3.3247,3.3309,3.3304,3.3362,3.3391,3.3373,3.3403,3.3417,3.342,3.3444,3.3447,3.3474,3.3451,3.3459,3.3483,3.3487,3.3524,3.3481,3.3515,3.3517,3.3512,3.3598,3.3613,3.3677,3.3569,3.3571,3.3572,0,3.3336,3.3357,3.3418,3.3432,3.3443,3.3471,3.3494,3.3517,3.3533,3.3533,3.3549,3.3539,3.3573,3.3542,3.3589,3.3561,3.3574,3.3578,3.358,3.3583,3.3548,3.3603,3.3697,3.3707,3.3586,3.3585,3.3584,0,3.3396,3.344,3.3482,3.3492,3.3509,3.3528,3.3536,3.355,3.3565,3.3585,3.3595,3.3619,3.3632,3.365,3.3647,3.3624,3.3695,3.3663,3.3696,3.3696,3.3712,3.3711,3.3809,3.3721,3.372,3.372,3.372,0,3.3473,3.3511,3.3509,3.3535,3.3577,3.357,3.3612,3.3617,3.3629,3.3656,3.3641,3.3666,3.3659,3.3684,3.3681,3.3721,3.3727,3.3727,3.3726,3.3729,3.3729,3.3737,3.3733,3.3723,3.3722,3.3722,3.3721,0,3.3548,3.3548,3.3593,3.3605,3.3609,3.3639,3.3649,3.3673,3.3675,3.3708,3.3715,3.3717,3.3745,3.3744,3.3775,3.3773,3.3822,3.3815,3.3817,3.3815,3.3848,3.3845,3.3955,3.3969,3.3872,3.3873,3.3874,0,3.3597,3.3626,3.3641,3.3658,3.3667,3.3694,3.371,3.3705,3.3722,3.3741,3.3763,3.3789,3.381,3.3855,3.386,3.3883,3.3877,3.3914,3.3881,3.3882,3.3878,3.3876,3.3879,3.3921,3.3922,3.3923,3.3924,0,3.3685,3.3683,3.3707,3.3731,3.375,3.3769,3.3785,3.38,3.3795,3.3815,3.3844,3.386,3.3892,3.3918,3.3941,3.3948,3.3935,3.3934,3.3943,3.3946,3.3945,3.3946,3.3835,3.3932,3.3931,3.393,3.393,3.3929,3.3749,3.3773,3.3788,3.3814,3.3826,3.3842,3.3865,3.3869,3.3893,3.3919,3.3914,3.3946,3.3959,3.3988,3.3998,3.4022,3.4009,3.4022,3.4025,3.4028,3.4032,3.3941,3.4026,3.4026,3.4026,3.4026,3.4025,0,3.3835,3.3844,3.3868,3.3892,3.3913,3.3899,3.3916,3.3934,3.3963,3.3977,3.3998,3.403,3.4055,3.4061,3.4085,3.4104,3.4098,3.411,3.4109,3.411,3.4042,3.4032,3.4114,3.4114,3.4114,3.4114,3.4114,3.4114,3.3883,3.3924,3.3924,3.397,3.3978,3.4009,3.402,3.4034,3.4045,3.4082,3.4103,3.4107,3.4117,3.4142,3.4164,3.4165,3.4175,3.4189,3.4188,3.4124,3.4115,3.4107,3.4097,3.4191,3.4191,3.4254,3.4254,3.4255]}]]